This is the latest recevied weather packets stored in our database for station/object VR2OT-10. If no packets are shown the sender has not sent any weather packets the latest 10 day(s).
| Time | Temp. | Humidity | Pressure | Rain* | Wind** | Luminosity | Snow |
|---|---|---|---|---|---|---|---|
| 1777749437 | 23.89° C | 88% | 1009.8 hPa | - | 0.45 m/s, 135° | - | - |
| 1777748537 | 23.33° C | 88% | 1010 hPa | - | 0.89 m/s, 135° | - | - |
| 1777747638 | 23.33° C | 88% | 1010 hPa | - | 0.45 m/s, 135° | - | - |
| 1777746739 | 23.33° C | 88% | 1010 hPa | - | 1.34 m/s, 135° | - | - |
| 1777745838 | 23.33° C | 89% | 1010.1 hPa | - | 1.34 m/s, 135° | - | - |
| 1777744939 | 23.89° C | 89% | 1010.3 hPa | - | 1.34 m/s, 135° | - | - |
| 1777744038 | 23.89° C | 88% | 1010.3 hPa | - | 1.34 m/s, 135° | - | - |
| 1777742238 | 23.89° C | 88% | 1010.8 hPa | - | 1.79 m/s, 135° | - | - |
| 1777741339 | 23.89° C | 88% | 1011.1 hPa | - | 1.34 m/s, 135° | - | - |
| 1777740438 | 23.89° C | 88% | 1011.1 hPa | - | 1.79 m/s, 135° | - | - |
| 1777739540 | 23.33° C | 88% | 1011.3 hPa | - | 1.34 m/s, 135° | - | - |
| 1777737738 | 23.89° C | 87% | 1011.7 hPa | - | 1.79 m/s, 135° | - | - |
| 1777736838 | 23.33° C | 88% | 1011.7 hPa | - | 1.79 m/s, 135° | - | - |
| 1777735938 | 23.89° C | 88% | 1012 hPa | - | 1.34 m/s, 135° | - | - |
| 1777735037 | 23.89° C | 88% | 1011.8 hPa | - | 1.34 m/s, 135° | - | - |
| 1777734139 | 23.89° C | 88% | 1012 hPa | - | 0.45 m/s, 135° | - | - |
| 1777733238 | 23.89° C | 87% | 1011.8 hPa | - | 0.89 m/s, 135° | - | - |
| 1777732338 | 23.89° C | 88% | 1011.6 hPa | - | 1.79 m/s, 135° | - | - |
| 1777731438 | 23.89° C | 87% | 1011.5 hPa | - | 1.79 m/s, 135° | - | - |
| 1777730538 | 23.89° C | 88% | 1011.5 hPa | - | 0.89 m/s, 135° | - | - |
| 1777729637 | 23.89° C | 87% | 1011.3 hPa | - | 1.34 m/s, 135° | - | - |
| 1777728739 | 24.44° C | 88% | 1011.1 hPa | - | 1.34 m/s, 135° | - | - |
| 1777727838 | 24.44° C | 88% | 1010.8 hPa | - | 2.24 m/s, 135° | - | - |
| 1777726938 | 23.89° C | 88% | 1010.7 hPa | - | 2.24 m/s, 135° | - | - |
| 1777725139 | 23.89° C | 86% | 1010.2 hPa | - | 2.24 m/s, 135° | - | - |
* Rain since midnight (hover to see other rain measurements)
** Current wind speed in m/s (hover to see current wind gust speed)